Flag for Congo Weather past 2 weeks in Pointe-Noire, Congo

Now
73 °F

Clear.


Feels Like: 72 °F
Forecast: 70 / 77 °F
Wind: 6 mph from South

Location: Pointe Airport-Noire

Current Time: Jul 2, 2015 at 7:22:54 PM

Latest Report: Jul 2, 2015 at 6:00 PM


Visibility: 4 mi

Pressure: 29.92 "Hg

Humidity: 89%

Dew point: 70 °F

Location of Pointe-NoireLocation

Historic Weather in Pointe-Noire — Graph

°F

Pointe-Noire temperature yesterday

Maximum temperature yesterday: 79 °F (at 1:00 PM)
Minimum temperature yesterday: 66 °F (at 5:00 AM)
Average temperature yesterday: 71 °F

Past Weeks' High & Low Weather Summary

 TemperatureHumidityPressure
High81 °F (Jun 19, 2:00 PM)100% (Jun 19, 2:00 AM)30.15 "Hg (Jun 19, 2:00 AM)
Low64 °F (Jun 28, 5:00 AM)54% (Jun 28, 11:00 AM)29.89 "Hg (Jun 17, 6:00 PM)
Average73 °F85%30.02 "Hg
* Reported Jun 17 6:00 PM — Jul 2 6:00 PM, Pointe-Noire, Weather by CustomWeather, © 2015

Note: Actual official high and low records may vary slightly from our data, if they occured in-between our weather recording intervals... More about our weather records

Advertising

Pointe-Noire weather history for previous 24 hours

 ConditionsComfort  
Time TempWeatherWind HumidityBarometerVisibility
6:00 PM
Thu, Jul 2
73 °FClear.6 mph89%29.92 "Hg4 mi
5:00 PM75 °FPassing clouds.9 mph78%29.92 "Hg5 mi
4:00 PM77 °FPassing clouds.9 mph74%29.92 "HgN/A
3:00 PM79 °FPassing clouds.8 mph65%29.92 "HgN/A
2:00 PM79 °FScattered clouds.8 mph65%29.95 "HgN/A
1:00 PM77 °FScattered clouds.10 mph74%29.98 "HgN/A
12:00 PM77 °FScattered clouds.10 mph74%29.98 "HgN/A
11:00 AM77 °FPartly sunny.6 mph74%30.01 "HgN/A
10:00 AM75 °FPartly sunny.7 mph78%30.01 "Hg4 mi
9:00 AM73 °FPartly sunny.7 mph83%30.01 "Hg4 mi
8:00 AM70 °FFog.5 mph94%30.01 "Hg2 mi
7:00 AM70 °FFog.2 mph94%29.98 "Hg2 mi
6:00 AM70 °FFog.3 mph94%29.98 "Hg2 mi
5:00 AM70 °FFog.2 mph94%29.98 "Hg2 mi
4:00 AM70 °FFog.2 mph94%29.98 "Hg2 mi
3:00 AM70 °FFog.2 mph88%29.98 "Hg2 mi
2:00 AM70 °FFog.2 mph88%30.01 "Hg2 mi
1:00 AM72 °FFog.2 mph88%30.01 "Hg2 mi
12:00 AM70 °FFog.1 mph94%30.01 "Hg2 mi
11:00 PM
Wed, Jul 1
70 °FPassing clouds.1 mph94%30.01 "Hg4 mi
10:00 PM70 °FPassing clouds.2 mph94%30.01 "Hg4 mi
9:00 PM70 °FPassing clouds.1 mph94%30.01 "Hg4 mi
7:00 PM72 °FPassing clouds.8 mph83%29.95 "Hg4 mi
Weather by CustomWeather, © 2015

See weather overviewHow to use our weather pages